[[{"header":{"parameterUnit":"m.s-1","parameterCategory":2,"la1":30.2991,"la2":30.254,"lo1":-89.0895,"lo2":-89.0444,"dy":0.0017,"dx":0.0017,"nx":28,"ny":28,"refTime":"2024-06-21T21:00:00:Z","depth":"0","parameterNumber":2,"parameterNumberName":"U-component_of_CURRENTS"},"data":[0,0,0,0,0,0,0,0,0,0,0,0,0,0,0,0,0,0,0,0,0,0,0,0,0,0,0,0,0,0,0,0,0,0,0,0,0,0,0,0,0,0,0,0,0,0,0,0,0,0,0,0,0,0,0,0,0,0,0.3403,0.3403,0,0.3399,0.3399,0.3399,0.3364,0.3363,0.3363,0.3362,0.3363,0.3363,0.3364,0,0,0,0,0,0,0,0,0,0,0,0,0,0.3409,0.3409,0.3403,0.3403,0.3404,0.3399,0.3399,0.3399,0.3364,0.3363,0.3363,0.3362,0.3362,0.3363,0.3364,0,0,0,0,0,0,0,0,0,0,0,0,0,0.3403,0.3409,0.3403,0.3388,0.3387,0.3399,0.3399,0.3398,0.3364,0.3363,0.3362,0.3362,0.3362,0.3363,0.3364,0.3386,0,0,0.3366,0.3367,0,0,0,0,0,0,0,0,0.3403,0.3402,0.339,0.3389,0.3388,0.3384,0.3401,0.3395,0.3364,0.3369,0.3362,0.3361,0.3373,0.3373,0.3369,0.3386,0.3386,0.3366,0.3367,0.3367,0.3367,0,0,0,0,0,0,0,0.3404,0.3402,0.3398,0.3391,0.3389,0.3392,0.3389,0.34,0.3374,0.3369,0.3367,0.3372,0.3372,0.3369,0.3369,0.3386,0.3366,0.3367,0.3368,0.3368,0.3415,0.3415,0,0,0,0,0,0,0.341,0.3403,0.3398,0.3398,0.3398,0.3393,0.339,0.3384,0.3373,0.3372,0.3373,0.3371,0.3368,0.3368,0.3369,0.3409,0.3367,0.3368,0.3368,0.3414,0.3415,0.3416,0,0,0,0,0,0,0.341,0.3409,0.3399,0.3404,0.3403,0.3394,0.3387,0.3384,0.3381,0.3377,0.3375,0.3373,0.3367,0.3368,0.3375,0.3408,0.3368,0.3369,0.3413,0.3414,0.3415,0.3481,0,0,0,0,0,0,0.341,0.3409,0.3409,0.3404,0.3403,0.3411,0.3388,0.3385,0.3387,0.3384,0.3377,0.3376,0.3366,0.3374,0.3376,0.3409,0.337,0.3412,0.3413,0.3415,0.3477,0.3484,0.3489,0,0,0,0,0,0.341,0.3413,0.3409,0.3409,0.3402,0.3412,0.3412,0.34,0.3388,0.3393,0.3382,0.3376,0.3384,0.3375,0.3377,0.3411,0.3411,0.3413,0.3415,0.3475,0.3483,0.3489,0,0,0,0,0,0,0.3412,0.341,0.3405,0.3406,0.3413,0.3408,0.3414,0.3407,0.3401,0.3398,0.3384,0.3383,0.341,0.3394,0.3384,0.3427,0.3398,0.34,0.3443,0.3451,0.3456,0.3448,0.337,0,0,0,0,0,0.3415,0.3417,0.3418,0.3421,0.3426,0.3422,0.3425,0.342,0.3416,0.3412,0.3408,0.3405,0.342,0.342,0.343,0.3447,0.3443,0.3469,0.3475,0.3481,0.3474,0.3504,0.3513,0.3421,0.3421,0.3421,0,0,0.3415,0.3417,0.3417,0.3422,0.3425,0.3438,0.342,0.3432,0.3441,0.3416,0.3427,0.3434,0.3432,0.3457,0.3466,0.3445,0.3505,0.3483,0.3487,0.3478,0.3507,0.3516,0.3524,0.3422,0.3422,0.3422,0,0,0.3422,0.3422,0.3427,0.3438,0.3452,0.3454,0.346,0.3463,0.3463,0.3479,0.347,0.3486,0.3499,0.3502,0.3507,0.3548,0.3545,0.3559,0.3574,0.3605,0.3612,0.3619,0.363,0.3638,0.3551,0.3551,0.3551,0,0.3424,0.3425,0.3432,0.3446,0.3457,0.3463,0.3475,0.3485,0.3489,0.35,0.349,0.3524,0.3522,0.3554,0.3563,0.3564,0.3573,0.3551,0.3614,0.362,0.3626,0.3636,0.3643,0.3554,0.3554,0.3553,0.3553,0,0.3436,0.344,0.3449,0.3465,0.3482,0.3496,0.3515,0.3533,0.354,0.355,0.3588,0.3588,0.36,0.3614,0.3599,0.3645,0.3636,0.363,0.3599,0.364,0.3647,0.3653,0.3559,0.3558,0.3557,0.3556,0,0,0.3419,0.3449,0.3449,0.3453,0.3491,0.3498,0.3539,0.3568,0.359,0.3612,0.3641,0.3667,0.3669,0.3671,0.3668,0.3684,0.3734,0.3671,0.3671,0.3686,0.3795,0.3715,0.3714,0.3748,0.375,0.3751,0.3785,0,0.342,0.344,0.346,0.3475,0.3486,0.3518,0.355,0.3586,0.362,0.3655,0.3678,0.3707,0.3692,0.3702,0.3722,0.374,0.3754,0.3725,0.3747,0.3747,0.3676,0.3719,0.355,0.356,0.3791,0.3792,0.3793,0,0.3412,0.3429,0.3444,0.347,0.3478,0.3494,0.3547,0.3579,0.3649,0.3676,0.3722,0.3745,0.3781,0.3759,0.3807,0.3794,0.3793,0.3799,0.38,0.3703,0.3679,0.3554,0.3563,0.3468,0.3802,0.3801,0.3801,0,0.3375,0.3406,0.3411,0.3423,0.3467,0.3481,0.3512,0.3584,0.362,0.3693,0.3734,0.3783,0.381,0.3835,0.3851,0.3837,0.3901,0.3883,0.3808,0.3802,0.3647,0.3625,0.3565,0.3909,0.3908,0.3908,0.3908,0,0.3352,0.3349,0.339,0.339,0.3402,0.3452,0.3485,0.3529,0.3614,0.366,0.3733,0.3779,0.3833,0.388,0.3879,0.3867,0.3926,0.3814,0.3809,0.3664,0.3644,0.3544,0.3512,0.391,0.3909,0.3909,0.3909,0,0.3293,0.332,0.3323,0.3367,0.3377,0.3387,0.3458,0.3491,0.3581,0.3651,0.3677,0.379,0.3847,0.3893,0.3936,0.3892,0.3772,0.3869,0.3686,0.3658,0.3465,0.3443,0.3246,0.3161,0.378,0.3779,0.3777,0,0.326,0.3258,0.3291,0.3293,0.3304,0.3337,0.3361,0.3453,0.3501,0.3648,0.3674,0.3776,0.382,0.3865,0.3822,0.3805,0.3708,0.3616,0.3544,0.3429,0.3403,0.3279,0.3214,0.3371,0.3367,0.3363,0.336,0,0.3203,0.3214,0.3221,0.323,0.324,0.3261,0.331,0.3342,0.3458,0.3515,0.3601,0.3658,0.3726,0.3638,0.3627,0.3593,0.342,0.3534,0.3466,0.3114,0.2923,0.2846,0.3376,0.3326,0.3329,0.3332,0.3334,0.3335,0.3156,0.3145,0.3158,0.3145,0.316,0.3164,0.3138,0.3208,0.3245,0.3291,0.3449,0.3451,0.3456,0.3418,0.3368,0.3163,0.319,0.3026,0.3022,0.2918,0.2775,0.3221,0.3135,0.3137,0.3139,0.3141,0.3142,0,0.308,0.3072,0.3073,0.3042,0.3006,0.3054,0.3072,0.3025,0.2996,0.3092,0.3133,0.3106,0.3005,0.2983,0.2818,0.2668,0.2557,0.2581,0.2377,0.2353,0.2792,0.2715,0.2471,0.2471,0.2471,0.2471,0.2471,0.2471,0.3042,0.2997,0.2983,0.2882,0.286,0.2764,0.2739,0.2694,0.2714,0.2649,0.2614,0.2673,0.2714,0.2585,0.2378,0.2302,0.2133,0.1992,0.2045,0.2372,0.2414,0.2453,0.2373,0.2061,0.2061,0.1482,0.1478,0.1474]},{"header":{"parameterUnit":"m.s-1","parameterCategory":2,"la1":30.2991,"la2":30.254,"lo1":-89.0895,"lo2":-89.0444,"dy":0.0017,"dx":0.0017,"nx":28,"ny":28,"refTime":"2024-06-21T21:00:00:Z","depth":"0","parameterNumber":3,"parameterNumberName":"V-component_of_CURRENTS"},"data":[0,0,0,0,0,0,0,0,0,0,0,0,0,0,0,0,0,0,0,0,0,0,0,0,0,0,0,0,0,0,0,0,0,0,0,0,0,0,0,0,0,0,0,0,0,0,0,0,0,0,0,0,0,0,0,0,0,0,0.0418,0.0419,0,0.042,0.042,0.042,0.041,0.041,0.041,0.0409,0.0387,0.0386,0.0386,0,0,0,0,0,0,0,0,0,0,0,0,0,0.0376,0.0377,0.0418,0.0419,0.0419,0.042,0.042,0.042,0.041,0.041,0.0409,0.0409,0.0387,0.0386,0.0386,0,0,0,0,0,0,0,0,0,0,0,0,0,0.0387,0.0377,0.0418,0.0415,0.0414,0.042,0.042,0.042,0.041,0.041,0.0409,0.0409,0.0387,0.0386,0.0386,0.0388,0,0,0.0384,0.0383,0,0,0,0,0,0,0,0,0.0386,0.0388,0.0415,0.0415,0.0415,0.0416,0.0397,0.0409,0.041,0.0411,0.0409,0.0409,0.0395,0.0394,0.0393,0.0387,0.0386,0.0384,0.0383,0.0383,0.0383,0,0,0,0,0,0,0,0.0386,0.0388,0.0418,0.0415,0.0415,0.0403,0.0404,0.0399,0.0403,0.041,0.041,0.0412,0.0394,0.0394,0.0393,0.0385,0.0384,0.0383,0.0383,0.0383,0.0385,0.0386,0,0,0,0,0,0,0.039,0.0388,0.0418,0.0418,0.0401,0.0404,0.0405,0.0415,0.0404,0.0402,0.0412,0.0412,0.0395,0.0394,0.0392,0.0413,0.0383,0.0382,0.0382,0.0385,0.0385,0.0386,0,0,0,0,0,0,0.0389,0.0393,0.0418,0.0403,0.0406,0.0405,0.0416,0.0415,0.0418,0.0406,0.0403,0.0416,0.0395,0.0393,0.0398,0.0412,0.0382,0.0382,0.0384,0.0385,0.0386,0.0444,0,0,0,0,0,0,0.0388,0.0393,0.04,0.0404,0.0407,0.043,0.0416,0.0415,0.042,0.0419,0.0408,0.0406,0.0395,0.0399,0.0398,0.041,0.0381,0.0384,0.0385,0.0385,0.0441,0.0446,0.0451,0,0,0,0,0,0.0386,0.0403,0.04,0.0404,0.0417,0.0431,0.0431,0.0428,0.042,0.0428,0.0422,0.0406,0.0403,0.04,0.0397,0.041,0.0383,0.0384,0.0385,0.0439,0.0445,0.045,0,0,0,0,0,0,0.0388,0.0403,0.0401,0.042,0.0427,0.043,0.0438,0.0433,0.0434,0.0433,0.0416,0.0414,0.0423,0.0407,0.0404,0.0412,0.0389,0.0389,0.043,0.0436,0.044,0.0457,0.0381,0,0,0,0,0,0.0392,0.0409,0.0417,0.0433,0.0438,0.0437,0.0441,0.0441,0.0443,0.0443,0.0436,0.0427,0.0425,0.0424,0.0418,0.0425,0.0405,0.043,0.0434,0.0438,0.045,0.0435,0.0439,0.0389,0.0389,0.0389,0,0,0.0396,0.0407,0.0416,0.0434,0.0439,0.0462,0.0439,0.0453,0.0475,0.044,0.0464,0.0445,0.043,0.044,0.0442,0.043,0.0439,0.044,0.0444,0.0453,0.0436,0.0441,0.0445,0.039,0.039,0.039,0,0,0.0422,0.0425,0.0451,0.0462,0.0476,0.0479,0.0485,0.0492,0.0497,0.0514,0.0494,0.0486,0.0484,0.0476,0.0472,0.0498,0.0465,0.049,0.053,0.0515,0.0519,0.0522,0.0492,0.0492,0.0493,0.0493,0.0493,0,0.0425,0.0464,0.0459,0.0489,0.0508,0.0492,0.0528,0.0531,0.0539,0.0551,0.053,0.0527,0.0504,0.0521,0.0524,0.051,0.049,0.0512,0.0522,0.0525,0.0527,0.0495,0.0495,0.0496,0.0495,0.0495,0.0495,0,0.0476,0.0505,0.0522,0.0559,0.0574,0.0601,0.0609,0.0622,0.0619,0.0621,0.0634,0.0601,0.0598,0.0584,0.0561,0.0571,0.0546,0.053,0.051,0.0536,0.05,0.0499,0.05,0.0499,0.0498,0.0497,0,0,0.0498,0.0549,0.0558,0.0592,0.0617,0.0641,0.0673,0.0706,0.0738,0.072,0.0755,0.0725,0.0694,0.0686,0.0649,0.063,0.0614,0.0589,0.0587,0.0564,0.0571,0.0551,0.0546,0.0601,0.0602,0.0602,0.0535,0,0.0545,0.0619,0.063,0.0702,0.0744,0.0744,0.0783,0.0803,0.0809,0.0834,0.0793,0.0807,0.0738,0.0735,0.0702,0.0645,0.0615,0.0633,0.0545,0.0542,0.0526,0.0546,0.0581,0.0524,0.0533,0.0533,0.0532,0,0.06,0.0647,0.0726,0.0795,0.0813,0.0847,0.0909,0.0942,0.0959,0.0963,0.095,0.0915,0.0882,0.0821,0.0728,0.0743,0.066,0.0606,0.0602,0.0566,0.0521,0.0501,0.0521,0.0449,0.053,0.053,0.053,0,0.0641,0.0718,0.0789,0.0812,0.0878,0.0913,0.0947,0.0981,0.1031,0.1043,0.1073,0.1015,0.1002,0.0898,0.0763,0.0749,0.0659,0.0624,0.0527,0.0523,0.0527,0.0524,0.0475,0.0559,0.0559,0.0559,0.0559,0,0.0699,0.0755,0.0814,0.0855,0.0948,0.0967,0.106,0.1083,0.113,0.1207,0.114,0.1177,0.1023,0.0947,0.0805,0.0665,0.0685,0.0541,0.0512,0.0546,0.0546,0.0463,0.0409,0.0556,0.0557,0.0558,0.0558,0,0.0738,0.0776,0.0863,0.094,0.0972,0.1038,0.114,0.1205,0.1237,0.1331,0.1343,0.1302,0.1211,0.1042,0.0877,0.0735,0.0546,0.0534,0.0574,0.0552,0.0393,0.0342,0.023,0.0205,0.042,0.042,0.0419,0,0.0767,0.0816,0.0925,0.0983,0.1022,0.1119,0.1195,0.1257,0.1335,0.1418,0.1473,0.1413,0.1402,0.1142,0.0886,0.0644,0.0537,0.0497,0.0474,0.0399,0.032,0.027,0.0255,0.0491,0.0491,0.0491,0.0491,0,0.082,0.0856,0.0927,0.1048,0.1136,0.1252,0.1359,0.1442,0.1531,0.1617,0.1704,0.1702,0.1469,0.1255,0.0913,0.0728,0.0461,0.0488,0.0411,0.0376,0.032,0.0279,0.0505,0.0491,0.0491,0.0491,0.0491,0.0491,0.0855,0.0913,0.1004,0.1119,0.1227,0.1368,0.147,0.1597,0.1746,0.189,0.1873,0.191,0.1599,0.1151,0.0895,0.0474,0.0459,0.036,0.0302,0.0258,0.0244,0.0462,0.0417,0.0416,0.0416,0.0416,0.0415,0,0.0896,0.0965,0.107,0.1211,0.1329,0.1385,0.1572,0.1687,0.1874,0.2011,0.2094,0.198,0.1604,0.1189,0.0617,0.035,0.0252,0.0206,0.0162,0.0154,0.0356,0.0373,0.0318,0.0318,0.0318,0.0318,0.0318,0.0318,0.0922,0.1018,0.1074,0.1267,0.1369,0.1541,0.1653,0.1836,0.1977,0.2153,0.2199,0.2204,0.1894,0.0926,0.0323,0.0189,0.004,-0.0016,-0.0092,0.0065,0.0076,0.0086,0.0092,-0.0022,-0.0022,-0.0239,-0.0241,-0.0243]}],[{"header":{"parameterUnit":"m.s-1","parameterCategory":2,"la1":30.2991,"la2":30.254,"lo1":-89.0895,"lo2":-89.0444,"dy":0.0017,"dx":0.0017,"nx":28,"ny":28,"refTime":"2024-06-21T21:00:00:Z","depth":"2","parameterNumber":2,"parameterNumberName":"U-component_of_CURRENTS"},"data":[0,0,0,0,0,0,0,0,0,0,0,0,0,0,0,0,0,0,0,0,0,0,0,0,0,0,0,0,0,0,0,0,0,0,0,0,0,0,0,0,0,0,0,0,0,0,0,0,0,0,0,0,0,0,0,0,0,0,0.2824,0.2824,0,0.2833,0.2833,0.2833,0.2823,0.2823,0.2822,0.2822,0.2824,0.2824,0.2824,0,0,0,0,0,0,0,0,0,0,0,0,0,0.2822,0.2822,0.2824,0.2824,0.2825,0.2833,0.2833,0.2833,0.2823,0.2823,0.2822,0.2822,0.2824,0.2824,0.2824,0,0,0,0,0,0,0,0,0,0,0,0,0,0.2824,0.2822,0.2824,0.2823,0.2823,0.2833,0.2833,0.2833,0.2823,0.2823,0.2822,0.2822,0.2824,0.2824,0.2824,0.283,0,0,0.2825,0.2825,0,0,0,0,0,0,0,0,0.2824,0.2824,0.2822,0.2823,0.2823,0.2829,0.2833,0.2832,0.2823,0.282,0.2822,0.2822,0.2827,0.2827,0.2825,0.283,0.283,0.2825,0.2825,0.2825,0.2825,0,0,0,0,0,0,0,0.2824,0.2823,0.2825,0.2823,0.2823,0.283,0.283,0.2833,0.2822,0.282,0.282,0.2826,0.2826,0.2825,0.2825,0.283,0.2825,0.2825,0.2825,0.2826,0.2885,0.2886,0,0,0,0,0,0,0.2827,0.2823,0.2824,0.2825,0.2826,0.2831,0.283,0.2825,0.2822,0.2822,0.2826,0.2825,0.2825,0.2825,0.2825,0.2871,0.2825,0.2826,0.2826,0.2883,0.2885,0.2887,0,0,0,0,0,0,0.2827,0.2826,0.2824,0.2827,0.2828,0.2831,0.2826,0.2825,0.2833,0.2827,0.2827,0.2835,0.2824,0.2825,0.2841,0.2869,0.2826,0.2826,0.2882,0.2884,0.2886,0.2936,0,0,0,0,0,0,0.2826,0.2826,0.2829,0.2827,0.2828,0.2838,0.2826,0.2826,0.2837,0.2836,0.2835,0.2834,0.2824,0.284,0.2841,0.2869,0.2826,0.288,0.2883,0.2885,0.2933,0.294,0.2946,0,0,0,0,0,0.2826,0.2828,0.2829,0.2829,0.2829,0.2839,0.284,0.284,0.2838,0.2845,0.2847,0.2834,0.2858,0.2842,0.2842,0.287,0.2879,0.2882,0.2885,0.293,0.2938,0.2946,0,0,0,0,0,0,0.2828,0.2827,0.2828,0.2829,0.2839,0.2838,0.2848,0.2848,0.2854,0.2858,0.2847,0.2847,0.2877,0.2866,0.2848,0.2897,0.2869,0.2872,0.2903,0.2911,0.2917,0.2917,0.2826,0,0,0,0,0,0.2831,0.2832,0.2836,0.284,0.2847,0.285,0.2857,0.2859,0.2864,0.2866,0.2867,0.2874,0.289,0.2893,0.2904,0.2922,0.2921,0.2943,0.295,0.2955,0.2956,0.2988,0.2997,0.2897,0.2897,0.2897,0,0,0.2832,0.2834,0.2834,0.2842,0.2849,0.2861,0.2853,0.2869,0.2883,0.2866,0.2889,0.29,0.2902,0.293,0.2942,0.2922,0.2984,0.2959,0.2964,0.2962,0.2992,0.3002,0.301,0.2899,0.2899,0.2899,0,0,0.2836,0.284,0.2843,0.2855,0.2873,0.2879,0.2887,0.2898,0.2907,0.2932,0.2931,0.2955,0.2972,0.2979,0.2985,0.3033,0.3024,0.3043,0.3068,0.3098,0.3107,0.3114,0.3126,0.3134,0.3039,0.3039,0.3039,0,0.2841,0.284,0.2848,0.286,0.2873,0.2889,0.2902,0.2917,0.2933,0.295,0.2948,0.2996,0.2996,0.303,0.3048,0.3047,0.3059,0.3036,0.3107,0.3114,0.312,0.3131,0.3139,0.3042,0.3042,0.3041,0.3041,0,0.2845,0.2852,0.286,0.2878,0.2896,0.2912,0.2936,0.2961,0.2981,0.2998,0.3047,0.3055,0.3081,0.3092,0.3083,0.3134,0.3125,0.3117,0.3084,0.3133,0.3141,0.3149,0.3046,0.3045,0.3044,0.3043,0,0,0.283,0.2856,0.2859,0.2866,0.2906,0.2915,0.296,0.2996,0.3027,0.3061,0.3101,0.3134,0.3149,0.3156,0.3156,0.3177,0.3231,0.3168,0.3169,0.3176,0.3295,0.3207,0.3207,0.3241,0.3243,0.3244,0.3281,0,0.283,0.2846,0.2866,0.2887,0.2897,0.2937,0.2973,0.3016,0.3059,0.3106,0.3138,0.3179,0.317,0.3191,0.3215,0.3235,0.3253,0.3221,0.3249,0.325,0.3163,0.3213,0.2952,0.2956,0.3288,0.3289,0.329,0,0.282,0.2834,0.2851,0.2885,0.2894,0.2918,0.2983,0.302,0.31,0.3137,0.3195,0.3226,0.3275,0.3256,0.3313,0.3298,0.3301,0.3305,0.3307,0.3211,0.3176,0.2962,0.2957,0.3302,0.3301,0.33,0.33,0,0.2786,0.2818,0.2827,0.284,0.2889,0.2914,0.2953,0.3033,0.3077,0.3165,0.3214,0.3274,0.3315,0.3342,0.3364,0.3349,0.3418,0.3395,0.3315,0.3308,0.3081,0.3052,0.3428,0.3428,0.3428,0.3428,0.3427,0,0.2763,0.2768,0.2812,0.2815,0.2839,0.2893,0.2941,0.2994,0.309,0.3144,0.3226,0.3276,0.3343,0.3393,0.3393,0.3382,0.3445,0.3326,0.3317,0.3091,0.3064,0.3357,0.3348,0.3429,0.3429,0.3428,0.3428,0,0.2711,0.2738,0.2747,0.28,0.2818,0.2839,0.2927,0.2966,0.3069,0.3148,0.3182,0.3302,0.3361,0.3409,0.3455,0.341,0.3409,0.3383,0.3107,0.3064,0.3267,0.3261,0.3294,0.3291,0.3289,0.3287,0.3285,0,0.2681,0.2681,0.2725,0.2732,0.2753,0.28,0.2832,0.2938,0.2987,0.3146,0.3173,0.3285,0.3323,0.3369,0.3316,0.3296,0.3374,0.3028,0.2942,0.3269,0.3257,0.3254,0.3251,0.2663,0.2656,0.2651,0.2647,0,0.2627,0.2644,0.2654,0.2673,0.2695,0.2721,0.2782,0.2816,0.2941,0.3005,0.3089,0.3144,0.3206,0.3065,0.3055,0.3006,0.301,0.2917,0.3339,0.274,0.2677,0.2665,0.2682,0.2599,0.2604,0.2607,0.261,0.2612,0.2585,0.2575,0.2591,0.2591,0.2617,0.2622,0.2602,0.2671,0.2712,0.2768,0.2908,0.2886,0.2899,0.2747,0.2644,0.2556,0.2762,0.2613,0.2628,0.2649,0.2572,0.2509,0.2384,0.2388,0.2391,0.2393,0.2396,0,0.2511,0.2506,0.251,0.249,0.2462,0.2522,0.2539,0.249,0.2463,0.2553,0.2586,0.2372,0.2274,0.2294,0.2081,0.2055,0.2025,0.1964,0.1899,0.1948,0.1992,0.188,0.1509,0.1506,0.1504,0.1501,0,0,0.2472,0.2429,0.2415,0.2327,0.2322,0.2242,0.222,0.2171,0.2181,0.212,0.2081,0.2227,0.2264,0.1881,0.1804,0.1624,0.1781,0.1558,0.2275,0.2252,0.2293,0.2374,0.2259,0,0,0,0,0]},{"header":{"parameterUnit":"m.s-1","parameterCategory":2,"la1":30.2991,"la2":30.254,"lo1":-89.0895,"lo2":-89.0444,"dy":0.0017,"dx":0.0017,"nx":28,"ny":28,"refTime":"2024-06-21T21:00:00:Z","depth":"2","parameterNumber":3,"parameterNumberName":"V-component_of_CURRENTS"},"data":[0,0,0,0,0,0,0,0,0,0,0,0,0,0,0,0,0,0,0,0,0,0,0,0,0,0,0,0,0,0,0,0,0,0,0,0,0,0,0,0,0,0,0,0,0,0,0,0,0,0,0,0,0,0,0,0,0,0,0.0329,0.0329,0,0.0333,0.0333,0.0333,0.0326,0.0326,0.0326,0.0325,0.0311,0.031,0.031,0,0,0,0,0,0,0,0,0,0,0,0,0,0.0288,0.0289,0.0329,0.0329,0.033,0.0333,0.0333,0.0333,0.0326,0.0326,0.0326,0.0325,0.0311,0.031,0.031,0,0,0,0,0,0,0,0,0,0,0,0,0,0.03,0.0289,0.0329,0.0327,0.0327,0.0333,0.0333,0.0333,0.0326,0.0326,0.0325,0.0325,0.0311,0.031,0.031,0.0313,0,0,0.0309,0.0309,0,0,0,0,0,0,0,0,0.0299,0.0301,0.0327,0.0327,0.0327,0.0329,0.0313,0.0326,0.0326,0.0326,0.0325,0.0325,0.0316,0.0315,0.0316,0.0313,0.0312,0.0309,0.0309,0.0309,0.0309,0,0,0,0,0,0,0,0.0298,0.0301,0.033,0.0327,0.0327,0.0316,0.0318,0.0315,0.0321,0.0326,0.0325,0.0327,0.0315,0.0316,0.0315,0.0312,0.0309,0.0309,0.0309,0.0308,0.0317,0.0317,0,0,0,0,0,0,0.0301,0.03,0.033,0.033,0.0313,0.0317,0.0319,0.0328,0.0322,0.0321,0.0327,0.0326,0.0317,0.0316,0.0315,0.0335,0.0309,0.0308,0.0308,0.0316,0.0317,0.0317,0,0,0,0,0,0,0.03,0.0304,0.033,0.0315,0.0318,0.0319,0.0329,0.0329,0.0332,0.0323,0.0322,0.0331,0.0317,0.0315,0.0323,0.0334,0.0308,0.0308,0.0316,0.0317,0.0317,0.0365,0,0,0,0,0,0,0.0299,0.0304,0.0311,0.0316,0.0319,0.0341,0.0329,0.0329,0.0334,0.0333,0.0326,0.0325,0.0316,0.0324,0.0323,0.0333,0.0308,0.0315,0.0316,0.0317,0.0363,0.0367,0.0371,0,0,0,0,0,0.0298,0.0313,0.0312,0.0315,0.0329,0.0342,0.0343,0.0341,0.0334,0.0342,0.0339,0.0325,0.0328,0.0325,0.0323,0.0333,0.0315,0.0316,0.0317,0.0361,0.0367,0.0371,0,0,0,0,0,0,0.0298,0.0314,0.0312,0.0331,0.0338,0.0341,0.0349,0.0345,0.0349,0.0348,0.0335,0.0334,0.0344,0.0332,0.0328,0.0337,0.0317,0.0318,0.0351,0.0356,0.036,0.0372,0.0307,0,0,0,0,0,0.0302,0.0319,0.0327,0.0342,0.0347,0.0347,0.0351,0.0352,0.0355,0.0357,0.0352,0.0347,0.0346,0.0346,0.0343,0.0352,0.033,0.0354,0.0359,0.0362,0.0371,0.0349,0.0351,0.0321,0.0321,0.0321,0,0,0.0305,0.0317,0.0325,0.0343,0.0348,0.0368,0.0349,0.0363,0.0382,0.0354,0.0377,0.0362,0.0351,0.0362,0.0364,0.0354,0.0358,0.0363,0.0367,0.0373,0.035,0.0353,0.0355,0.0321,0.0321,0.0321,0,0,0.0327,0.0332,0.0355,0.0366,0.038,0.0384,0.0389,0.0397,0.0402,0.0419,0.0403,0.0396,0.0399,0.0391,0.0388,0.0411,0.038,0.0407,0.0439,0.0417,0.042,0.0422,0.0391,0.039,0.0409,0.0409,0.0409,0,0.033,0.0364,0.0362,0.0389,0.0406,0.0394,0.0425,0.043,0.0439,0.0448,0.0434,0.0432,0.0414,0.0426,0.0431,0.042,0.0401,0.0423,0.0423,0.0425,0.0426,0.0394,0.0392,0.0411,0.0411,0.0411,0.0411,0,0.0372,0.0399,0.0414,0.0448,0.0462,0.0487,0.0496,0.0507,0.0507,0.0508,0.0519,0.0493,0.049,0.0478,0.0463,0.0465,0.0445,0.0431,0.0412,0.0432,0.0397,0.0394,0.0415,0.0414,0.0413,0.0413,0,0,0.0388,0.0436,0.0444,0.0474,0.0499,0.0521,0.0549,0.0576,0.0602,0.0589,0.0616,0.0592,0.0567,0.056,0.0531,0.0508,0.0487,0.0477,0.0474,0.0449,0.0435,0.0415,0.0409,0.0474,0.0474,0.0474,0.0405,0,0.0427,0.0492,0.0504,0.0567,0.0603,0.0606,0.0641,0.0659,0.0663,0.0682,0.0646,0.0657,0.0602,0.0601,0.0568,0.0516,0.0483,0.0507,0.0418,0.0415,0.0397,0.0407,0.0419,0.0358,0.0402,0.0401,0.0401,0,0.0472,0.0513,0.0582,0.0644,0.066,0.0691,0.0744,0.0775,0.0786,0.079,0.0776,0.0745,0.0713,0.0663,0.0573,0.0592,0.0517,0.0466,0.0462,0.0427,0.039,0.0346,0.035,0.0395,0.0396,0.0396,0.0397,0,0.0501,0.057,0.0632,0.0653,0.0715,0.0746,0.0778,0.0806,0.085,0.0856,0.0881,0.0824,0.0813,0.0715,0.0596,0.0587,0.0492,0.0464,0.0372,0.0369,0.0353,0.035,0.0394,0.0394,0.0395,0.0395,0.0395,0,0.0546,0.0595,0.0651,0.0687,0.077,0.0791,0.0871,0.0893,0.0933,0.0998,0.0938,0.0966,0.0827,0.0753,0.0627,0.0494,0.051,0.0381,0.0354,0.0369,0.0368,0.0383,0.0382,0.0392,0.0393,0.0393,0.0394,0,0.0575,0.061,0.0687,0.0758,0.079,0.0849,0.0944,0.1001,0.1028,0.1107,0.1117,0.1075,0.0985,0.0832,0.0675,0.0549,0.0415,0.0359,0.0381,0.0358,0.0294,0.0297,0.0251,0.025,0.0249,0.0248,0.0247,0,0.0597,0.064,0.074,0.0794,0.0831,0.0921,0.0992,0.1049,0.1117,0.1182,0.1229,0.1164,0.1141,0.0896,0.0666,0.0443,0.0411,0.0293,0.0275,0.0303,0.0281,0.0286,0.029,0.0265,0.0264,0.0264,0.0263,0,0.0639,0.0673,0.0737,0.0849,0.0933,0.1039,0.1139,0.1211,0.129,0.1354,0.1418,0.14,0.118,0.0961,0.0649,0.0489,0.0329,0.0278,0.0308,0.0304,0.0312,0.0292,0.0296,0.026,0.026,0.026,0.0261,0.0261,0.0668,0.072,0.0804,0.0911,0.1013,0.1143,0.1234,0.1343,0.1465,0.1566,0.1545,0.152,0.127,0.0876,0.0603,0.0305,0.0325,0.0209,0.0212,0.0215,0.0234,0.024,0.0177,0.0177,0.0177,0.0177,0.0177,0,0.0705,0.0767,0.0862,0.0992,0.1101,0.1159,0.1326,0.1416,0.1562,0.1645,0.1691,0.1445,0.12,0.0905,0.0477,0.0227,0.0202,0.0128,0.0161,0.0166,0.0171,0.0189,0.0119,0.0118,0.0117,0.0117,0,0,0.0728,0.0814,0.0863,0.1038,0.1136,0.1294,0.1394,0.1531,0.1624,0.17,0.1686,0.1642,0.1295,0.0972,0.0628,0.038,0.0327,0.0317,0.0391,0.0476,0.0483,0.0243,0.028,0,0,0,0,0]}],[{"header":{"parameterUnit":"m.s-1","parameterCategory":2,"la1":30.2991,"la2":30.254,"lo1":-89.0895,"lo2":-89.0444,"dy":0.0017,"dx":0.0017,"nx":28,"ny":28,"refTime":"2024-06-21T21:00:00:Z","depth":"4","parameterNumber":2,"parameterNumberName":"U-component_of_CURRENTS"},"data":[0,0,0,0,0,0,0,0,0,0,0,0,0,0,0,0,0,0,0,0,0,0,0,0,0,0,0,0,0,0,0,0,0,0,0,0,0,0,0,0,0,0,0,0,0,0,0,0,0,0,0,0,0,0,0,0,0,0,0.1765,0.1766,0,0.1818,0.1819,0.1819,0.1873,0.1874,0.1874,0.1875,0.1948,0.1949,0.195,0,0,0,0,0,0,0,0,0,0,0,0,0,0.1717,0.1717,0.1765,0.1766,0.1767,0.1818,0.1819,0.1819,0.1872,0.1874,0.1875,0.1876,0.1948,0.1949,0.195,0,0,0,0,0,0,0,0,0,0,0,0,0,0.1749,0.1718,0.1765,0.1801,0.1805,0.1818,0.1819,0.1819,0.1872,0.1874,0.1875,0.1876,0.1947,0.1949,0.1951,0.1933,0,0,0.1956,0.1956,0,0,0,0,0,0,0,0,0.1747,0.175,0.1795,0.1799,0.1803,0.1842,0.1829,0.1859,0.1872,0.1844,0.1875,0.1877,0.1915,0.1919,0.1923,0.1936,0.194,0.1956,0.1957,0.1957,0.1958,0,0,0,0,0,0,0,0.1744,0.1748,0.1784,0.1796,0.1801,0.1817,0.1823,0.1834,0.187,0.1847,0.1852,0.186,0.1917,0.1921,0.1925,0.1941,0.1956,0.1957,0.1958,0.1959,0.2058,0.2059,0,0,0,0,0,0,0.174,0.1746,0.1782,0.1786,0.178,0.1817,0.1824,0.1826,0.187,0.1878,0.1859,0.1863,0.1918,0.1923,0.1928,0.2011,0.1957,0.1959,0.196,0.2056,0.2058,0.206,0,0,0,0,0,0,0.1739,0.1743,0.178,0.1769,0.1776,0.1817,0.182,0.1827,0.1869,0.1879,0.1888,0.1898,0.1919,0.1926,0.1973,0.201,0.196,0.1961,0.2054,0.2057,0.2059,0.2111,0,0,0,0,0,0,0.1737,0.1742,0.1761,0.1769,0.1776,0.181,0.1819,0.1827,0.1871,0.1877,0.1915,0.1921,0.1921,0.197,0.1974,0.2011,0.1962,0.2052,0.2055,0.2058,0.2107,0.2115,0.2122,0,0,0,0,0,0.1735,0.1747,0.1761,0.1767,0.1795,0.1811,0.1817,0.1849,0.1872,0.1892,0.1924,0.1922,0.1993,0.1973,0.1977,0.2016,0.2051,0.2054,0.2058,0.2104,0.2114,0.2122,0,0,0,0,0,0,0.1739,0.1754,0.177,0.1788,0.1811,0.1822,0.185,0.1868,0.1908,0.1929,0.1937,0.1945,0.2003,0.2001,0.1978,0.2054,0.2024,0.2028,0.2057,0.2066,0.2073,0.2076,0.1964,0,0,0,0,0,0.1747,0.1763,0.1779,0.18,0.1814,0.1839,0.1859,0.1881,0.1907,0.1928,0.1955,0.1986,0.2014,0.2035,0.2056,0.2092,0.2093,0.2122,0.2129,0.2135,0.2142,0.2178,0.2189,0.2072,0.2072,0.2072,0,0,0.1756,0.1768,0.1779,0.1803,0.1826,0.1848,0.1855,0.1895,0.1924,0.1928,0.1991,0.2016,0.203,0.2076,0.2102,0.2084,0.2169,0.214,0.2145,0.2148,0.2183,0.2195,0.2205,0.2075,0.2074,0.2074,0,0,0.1767,0.1793,0.1807,0.1828,0.1868,0.1881,0.1901,0.1934,0.1967,0.2019,0.2034,0.2082,0.2124,0.214,0.2152,0.2211,0.2208,0.2227,0.2265,0.23,0.231,0.2319,0.2329,0.2339,0.2228,0.2228,0.2228,0,0.1784,0.1796,0.1817,0.1837,0.1862,0.19,0.1924,0.1956,0.2006,0.2038,0.2053,0.2137,0.2152,0.22,0.2226,0.2228,0.2242,0.2228,0.2309,0.2318,0.2326,0.2335,0.2344,0.2231,0.2231,0.2231,0.223,0,0.179,0.1819,0.1833,0.1869,0.1899,0.193,0.1969,0.2018,0.2068,0.2099,0.2179,0.2205,0.2256,0.227,0.2268,0.2335,0.2325,0.2315,0.2284,0.2341,0.2346,0.2355,0.2236,0.2235,0.2234,0.2233,0,0,0.1777,0.1827,0.1838,0.1861,0.1921,0.194,0.2005,0.2062,0.2113,0.2178,0.2243,0.2298,0.2331,0.2347,0.2358,0.2387,0.2453,0.2384,0.2384,0.2389,0.2527,0.2348,0.234,0.2466,0.2468,0.2469,0.2506,0,0.1782,0.1816,0.1846,0.1896,0.1916,0.1978,0.2029,0.2094,0.216,0.2234,0.2286,0.2354,0.2354,0.2395,0.2429,0.2456,0.2481,0.2443,0.2476,0.2477,0.2307,0.2346,0.2476,0.2512,0.2514,0.2515,0.2516,0,0.1771,0.1798,0.1841,0.1906,0.1925,0.1971,0.2068,0.2121,0.2228,0.2283,0.2367,0.2413,0.2487,0.2474,0.2549,0.2532,0.2539,0.2544,0.2546,0.2366,0.2314,0.2447,0.2532,0.2531,0.253,0.2529,0.2528,0,0.1729,0.1792,0.1828,0.1852,0.1932,0.1985,0.2045,0.2149,0.2208,0.2331,0.2395,0.2479,0.2544,0.2578,0.2607,0.2595,0.2668,0.2646,0.2484,0.2472,0.2599,0.259,0.2688,0.2688,0.2688,0.2687,0.2687,0,0.1696,0.173,0.1821,0.1839,0.19,0.1975,0.206,0.2134,0.2254,0.2318,0.2428,0.2481,0.258,0.2632,0.2636,0.2583,0.2695,0.2492,0.247,0.2619,0.2612,0.2605,0.2595,0.2689,0.2688,0.2688,0.2688,0,0.1633,0.1691,0.1739,0.184,0.188,0.1931,0.2064,0.2116,0.2248,0.234,0.2388,0.2518,0.2573,0.2632,0.2684,0.26,0.2577,0.2528,0.2683,0.267,0.2349,0.2341,0.2342,0.2336,0.2331,0.2327,0.2323,0,0.1596,0.1615,0.1729,0.1764,0.1818,0.1908,0.1963,0.2101,0.2153,0.233,0.2354,0.2472,0.2532,0.2461,0.2535,0.2515,0.2482,0.2445,0.2388,0.2335,0.2315,0.2316,0.2315,0.2315,0.2314,0.2312,0.2311,0,0.1526,0.1587,0.1627,0.1699,0.1765,0.1818,0.1912,0.1937,0.2083,0.2226,0.2255,0.2276,0.2326,0.2344,0.2348,0.2331,0.2455,0.2392,0.2401,0.2348,0.2302,0.2288,0.2293,0.2294,0.2296,0.2298,0.2299,0,0.1485,0.1494,0.1561,0.1606,0.1683,0.1697,0.176,0.1809,0.1876,0.2064,0.2066,0.2183,0.2303,0.2249,0.2254,0.2222,0.2177,0.2086,0.2111,0.2131,0.2041,0.1951,0.1816,0,0,0,0,0,0.1427,0.1419,0.1458,0.1487,0.1557,0.1601,0.1705,0.177,0.1911,0.1875,0.1964,0.1995,0.1999,0.206,0.198,0.2154,0.2187,0.2049,0.2096,0.2196,0.2216,0.2129,0,0,0,0,0,0,0.1384,0.1416,0.1414,0.1379,0.1382,0.1436,0.1498,0.1596,0.1579,0.1735,0.1749,0.1861,0.19,0.2024,0.1941,0.1956,0.1937,0.2124,0.2118,0.2185,0.2203,0.2219,0.2136,0,0,0,0,0]},{"header":{"parameterUnit":"m.s-1","parameterCategory":2,"la1":30.2991,"la2":30.254,"lo1":-89.0895,"lo2":-89.0444,"dy":0.0017,"dx":0.0017,"nx":28,"ny":28,"refTime":"2024-06-21T21:00:00:Z","depth":"4","parameterNumber":3,"parameterNumberName":"V-component_of_CURRENTS"},"data":[0,0,0,0,0,0,0,0,0,0,0,0,0,0,0,0,0,0,0,0,0,0,0,0,0,0,0,0,0,0,0,0,0,0,0,0,0,0,0,0,0,0,0,0,0,0,0,0,0,0,0,0,0,0,0,0,0,0,0.027,0.027,0,0.028,0.028,0.028,0.0284,0.0284,0.0284,0.0284,0.0289,0.029,0.029,0,0,0,0,0,0,0,0,0,0,0,0,0,0.0234,0.0235,0.027,0.027,0.027,0.028,0.028,0.028,0.0284,0.0284,0.0284,0.0284,0.0289,0.029,0.029,0,0,0,0,0,0,0,0,0,0,0,0,0,0.0247,0.0235,0.027,0.0273,0.0274,0.028,0.028,0.0281,0.0284,0.0284,0.0284,0.0284,0.0289,0.029,0.029,0.0293,0,0,0.0291,0.0291,0,0,0,0,0,0,0,0,0.0247,0.0249,0.0273,0.0273,0.0273,0.0281,0.027,0.0284,0.0284,0.028,0.0284,0.0284,0.0286,0.0287,0.0289,0.0293,0.0293,0.0291,0.0291,0.0291,0.0291,0,0,0,0,0,0,0,0.0246,0.0248,0.0274,0.0273,0.0273,0.0267,0.0269,0.0272,0.0283,0.028,0.0281,0.0282,0.0286,0.0288,0.0289,0.0293,0.0291,0.0291,0.0291,0.0291,0.0311,0.0312,0,0,0,0,0,0,0.0246,0.0248,0.0274,0.0274,0.026,0.0268,0.027,0.0278,0.0283,0.0284,0.0282,0.0282,0.0288,0.0289,0.0289,0.0313,0.0291,0.0291,0.0291,0.0311,0.0311,0.0312,0,0,0,0,0,0,0.0245,0.0248,0.0273,0.0261,0.0263,0.0269,0.0278,0.0279,0.0287,0.0284,0.0285,0.029,0.0288,0.0289,0.0303,0.0312,0.0291,0.0292,0.031,0.0311,0.0311,0.0348,0,0,0,0,0,0,0.0244,0.0248,0.0256,0.0261,0.0264,0.0285,0.0278,0.0279,0.0287,0.0288,0.0291,0.0291,0.0288,0.0303,0.0303,0.0312,0.0292,0.031,0.0311,0.0311,0.0346,0.0349,0.0352,0,0,0,0,0,0.0243,0.0256,0.0256,0.0259,0.0274,0.0285,0.0287,0.029,0.0288,0.0296,0.03,0.0292,0.0307,0.0304,0.0304,0.0313,0.031,0.031,0.0311,0.0345,0.0349,0.0352,0,0,0,0,0,0,0.0243,0.0257,0.0258,0.0274,0.0282,0.0286,0.0294,0.0294,0.0304,0.0306,0.0301,0.0302,0.0317,0.031,0.0306,0.032,0.0305,0.0306,0.033,0.0333,0.0336,0.0341,0.0292,0,0,0,0,0,0.0247,0.0262,0.0269,0.0283,0.0288,0.0292,0.0297,0.03,0.0307,0.0312,0.0314,0.0316,0.0319,0.0323,0.0325,0.0337,0.0315,0.034,0.0343,0.0346,0.035,0.0325,0.0326,0.0314,0.0314,0.0314,0,0,0.025,0.026,0.0268,0.0284,0.029,0.0307,0.0295,0.0309,0.0326,0.0311,0.0335,0.0329,0.0325,0.0338,0.0343,0.0335,0.0338,0.0347,0.035,0.0352,0.0326,0.0327,0.0328,0.0315,0.0315,0.0315,0,0,0.0266,0.0274,0.0293,0.0303,0.0317,0.0321,0.0327,0.0337,0.0345,0.0365,0.0356,0.0355,0.0367,0.0361,0.036,0.038,0.0355,0.0381,0.0403,0.0379,0.038,0.038,0.0351,0.0349,0.0383,0.0383,0.0383,0,0.0269,0.0296,0.0299,0.0319,0.0334,0.033,0.0355,0.0362,0.0376,0.0385,0.0379,0.0385,0.0377,0.0387,0.0392,0.0387,0.037,0.039,0.0383,0.0383,0.0383,0.0353,0.035,0.0385,0.0384,0.0384,0.0384,0,0.03,0.0323,0.0335,0.0363,0.0377,0.0398,0.0408,0.0422,0.0427,0.0431,0.0444,0.043,0.0432,0.0425,0.0417,0.0414,0.04,0.039,0.0374,0.0386,0.0354,0.035,0.0387,0.0386,0.0386,0.0385,0,0,0.0307,0.0349,0.0355,0.038,0.0405,0.0422,0.0448,0.0471,0.0491,0.049,0.051,0.05,0.0484,0.0481,0.0463,0.044,0.0416,0.0418,0.0416,0.039,0.0361,0.0339,0.0332,0.0406,0.0406,0.0406,0.0338,0,0.0332,0.0382,0.0397,0.0447,0.0474,0.0484,0.0514,0.0531,0.0538,0.0554,0.053,0.0543,0.0509,0.0512,0.0481,0.044,0.0408,0.0435,0.0353,0.035,0.0329,0.0327,0.0405,0.0335,0.0334,0.0333,0.0332,0,0.036,0.0393,0.0447,0.05,0.0514,0.0543,0.0587,0.0614,0.0626,0.0632,0.0624,0.0604,0.0579,0.0546,0.0467,0.0489,0.0427,0.0384,0.038,0.0345,0.032,0.032,0.0325,0.0325,0.0326,0.0326,0.0327,0,0.0371,0.0429,0.0478,0.0496,0.0552,0.0581,0.0612,0.0637,0.0673,0.0681,0.07,0.0656,0.065,0.0568,0.0476,0.0473,0.0382,0.0365,0.0282,0.0279,0.0304,0.0304,0.0298,0.0298,0.0299,0.0299,0.0299,0,0.0395,0.0434,0.049,0.0518,0.0587,0.0612,0.0678,0.07,0.0736,0.0783,0.0745,0.076,0.0657,0.0593,0.0492,0.0377,0.039,0.0284,0.0261,0.032,0.0323,0.03,0.0302,0.0296,0.0297,0.0297,0.0298,0,0.0402,0.0437,0.0499,0.0567,0.0597,0.0647,0.0735,0.078,0.0808,0.0865,0.0874,0.084,0.0759,0.0641,0.0507,0.041,0.0295,0.0246,0.0318,0.0301,0.0201,0.0205,0.0147,0.0145,0.0144,0.0143,0.0143,0,0.041,0.0443,0.0536,0.0583,0.0621,0.0699,0.0762,0.0817,0.0866,0.0914,0.0944,0.0887,0.0844,0.0643,0.0507,0.0307,0.0273,0.0201,0.0195,0.0202,0.0186,0.0192,0.0197,0.0141,0.014,0.014,0.014,0,0.0426,0.0462,0.0515,0.0612,0.0688,0.0777,0.0863,0.0905,0.0971,0.0995,0.0998,0.0901,0.0807,0.0643,0.0489,0.0344,0.0242,0.0188,0.019,0.0183,0.0194,0.018,0.0187,0.0136,0.0136,0.0137,0.0137,0,0.0439,0.0477,0.0551,0.0639,0.0736,0.083,0.0875,0.0939,0.0992,0.1036,0.1031,0.0934,0.0878,0.0663,0.0522,0.0376,0.0331,0.0265,0.0262,0.0264,0.0313,0.0345,0.0313,0,0,0,0,0,0.045,0.0496,0.0574,0.0673,0.0768,0.0831,0.0937,0.0975,0.1035,0.1042,0.1038,0.0949,0.075,0.067,0.052,0.0485,0.0296,0.03,0.0216,0.0114,0.0119,0.0153,0,0,0,0,0,0,0.0458,0.0527,0.0569,0.0687,0.0756,0.087,0.0942,0.0984,0.0988,0.1017,0.0919,0.0884,0.0695,0.0832,0.0508,0.0466,0.0385,0.0216,0.0212,0.0111,0.0116,0.0119,0.0157,0,0,0,0,0]}]]